Regional Weather Roundup
Issued by NWS

Home | Current Version | Previous Version | Graphics & Text | Print | Product List | Glossary On
Versions: 1 2 3 4 5 6 7 8 9 10 11 12 13 14 15 16 17 18 19 20 21 22 23 24 25 26 27 28 29 30 31 32 33 34 35 36 37 38 39 40 41 42 43 44 45 46 47 48 49
000
ASUS45 KBOU 312007
RWRCO

WEATHER ROUNDUP FOR COLORADO
NATIONAL WEATHER SERVICE DENVER/BOULDER CO
200 PM MDT THU JUL 31 2014

NOTE: "FAIR" INDICATES FEW OR NO CLOUDS BELOW 12000 FEET WITH NO
SIGNIFICANT WEATHER AND/OR OBSTRUCTIONS TO VISIBILITY.

COZ001>005-013-030-031-312100-
...NORTHWEST COLORADO...

CITY           SKY/WX    TMP DP  RH WIND       PRES   REMARKS
CRAIG          MOSUNNY   68  52  56 W6        30.27F
HAYDEN         MOSUNNY   73  46  38 W3        30.29S
MEEKER         MOSUNNY   76  48  37 VRB7      30.28F
MOUNT WERNER   NOT AVBL
STEAMBOAT SPGS MOSUNNY   73  47  40 SW5       30.30F
WALDEN         MOSUNNY   70  41  35 E3G20     30.39F
$$

COZ006>008-011-312100-
...WEST CENTRAL VALLEYS...

CITY           SKY/WX    TMP DP  RH WIND       PRES   REMARKS
GRAND JUNCTION MOSUNNY   81  53  37 W13       30.16F
MONTROSE       MOSUNNY   80  54  40 S8        30.23F
EAGLE          PTSUNNY   75  52  43 W8        30.28F
RIFLE          MOSUNNY   82  51  34 W9        30.18F
DELTA          MOSUNNY   89  48  24 SW13G21   30.16F
NUCLA          MOSUNNY   82  48  30 NW7       30.25F
$$

COZ017>023-064>068-312100-
...SOUTHWEST COLORADO...

CITY           SKY/WX    TMP DP  RH WIND       PRES   REMARKS
DURANGO        TSTM      65  58  78 NW10G21   30.27R
CORTEZ         MOSUNNY   86  49  27 W17G23    30.20S
PAGOSA SPRINGS TSTM      55  50  85 N13G25    30.36R VSB 1/2
TELLURIDE      NOT AVBL
WOLF CREEK PAS NOT AVBL
$$

COZ009-010-012-014-032>034-037-058>063-312100-
...CENTRAL COLORADO...

CITY           SKY/WX    TMP DP  RH WIND       PRES   REMARKS
ASPEN          LGT RAIN  65  54  67 SW9G20    30.35R
BUENA VISTA    CLOUDY    61  54  77 SE6       30.39R
COPPER MTN     CLOUDY    54  45  71 W9G18     30.64S
BERTHOUD PASS  FOG       37  36  93 E14       30.69F THUNDER VSB<1/4
COTTONWOOD PAS PTSUNNY   59  55  88 CALM      30.51S FOG
GUNNISON       PTSUNNY   70  45  40 N9        30.35R
KREMMLING      PTSUNNY   66  46  48 NE12      30.36S
LEADVILLE      MOSUNNY   60  43  53 NE5       30.45F
MONARCH PASS   HAZE      52  46  82 SW12G20   30.73F VSB<1/4
SALIDA         PTSUNNY   67  56  65 E14G21    30.43F
SUNLIGHT       MOSUNNY   63  52  67 SW5       30.58S
WILKERSON PASS DRZL/FOG  45  43  93 E9        30.64S VSB 1/4
$$

COZ069>075-312100-
...SAN LUIS VALLEY/SANGRE DE CRISTO MOUNTAINS...

CITY           SKY/WX    TMP DP  RH WIND       PRES   REMARKS
ALAMOSA        PTSUNNY   69  55  60 NE9       30.32F
LA VETA PASS   HVY RAIN  48  46  93 NE12      30.53F VSB 1/4
SAGUACHE       PTSUNNY   72  54  53 SW10G18   30.35F
$$

COZ035-036-038>040-312100-
...NORTHERN COLORADO FRONT RANGE...

CITY           SKY/WX    TMP DP  RH WIND       PRES   REMARKS
DENVER INTL AP PTSUNNY   72  48  42 CALM      30.30F
DMNS CITY PARK   N/A     73  50  44 SE2G8     30.30F
AURORA         NOT AVBL
FRONT RANGE AP PTSUNNY   72  52  49 N5        30.31F
ERIE MUNI ARPT PTSUNNY   73  51  44 S3        30.28F
BOULDER MUN AP PTSUNNY   72  45  37 CALM      30.29F
CENTENNIAL     PTSUNNY   67  50  54 CALM      30.33F
BROOMFIELD     PTSUNNY   73  46  38 VRB5      30.32F
FORT COLLINS   SUNNY     77  46  33 SW3       30.27F
LONGMONT       CLOUDY    80  49  33 SE5       30.29F
$$

COZ041-046-047-076>085-087-088-312100-
...PIKES PEAK/PALMER DIVIDE AND SOUTHERN FOOTHILLS...

CITY           SKY/WX    TMP DP  RH WIND       PRES   REMARKS
COLO. SPRINGS  CLOUDY    62  54  74 CALM      30.37F
A. F. ACADEMY  NOT AVBL
ELLICOTT       PTSUNNY   64  52  64 VRB5      30.34F
FALCON         CLOUDY    62  54  75 W3        30.40F
FORT CARSON    LGT RAIN  63  57  82 VRB2      30.35S
LIMON          CLOUDY    69  51  52 CALM      30.30F
MONUMENT HILL  CLOUDY    59  52  77 CALM      30.39S
TRINIDAD       CLOUDY    68  53  58 E13       30.30F
$$

COZ042>045-048>051-090-091-312100-
...NORTHEAST COLORADO...

CITY           SKY/WX    TMP DP  RH WIND       PRES   REMARKS
GREELEY ARPT   NOT AVBL
AKRON          LGT RAIN  77  46  33 CALM      30.25S
BURLINGTON     MOSUNNY   79  45  29 VRB5      30.23F
WRAY             N/A     83  45  26 S5        30.19F
STERLING       SUNNY     82  55  39 S5        30.20F
HOLYOKE        SUNNY     84  52  32 SW3       30.18F
FORT MORGAN    MOSUNNY   78  49  35 SE7       30.25F
$$

COZ086-089-092>099-312100-
...SOUTHEAST COLORADO...

CITY           SKY/WX    TMP DP  RH WIND       PRES   REMARKS
PUEBLO         CLOUDY    70  53  54 E6        30.27F
LA JUNTA       PTSUNNY   72  52  49 CALM      30.25F
LAMAR          MOSUNNY   75  51  43 W6        30.22F
SPRINGFIELD      N/A     73  50  44 CALM      30.25F
$$


USA.gov is the U.S. government's official web portal to all federal, state and local government web resources and services.